Regional Weather Roundup
Issued by NWS

Home | Current Version | Previous Version | Graphics & Text | Print | Product List | Glossary On
Versions: 1 2 3 4 5 6 7 8 9 10 11 12 13 14 15 16 17 18 19 20 21 22 23 24 25 26 27 28 29 30 31 32 33 34 35 36 37 38 39 40 41 42 43 44 45 46 47 48 49 50
000
ASUS43 KMKX 210921
RWRWI

WISCONSIN REGIONAL WEATHER ROUNDUP
NATIONAL WEATHER SERVICE MILWAUKEE/SULLIVAN WI
400 AM CDT THU SEP 21 2017

NOTE: "FAIR" INDICATES FEW OR NO CLOUDS BELOW 12,000 FEET WITH NO
SIGNIFICANT WEATHER AND/OR OBSTRUCTIONS TO VISIBILITY.

WIZ001-002-006>008-014>016-023>028-211000-
NORTHWEST WISCONSIN

CITY           SKY/WX    TMP DP  RH WIND       PRES   REMARKS
SUPERIOR ARPT  CLEAR     41  41 100 CALM      30.02S FOG
ASHLAND        CLEAR     45  44  97 SW5       30.02R
HAYWARD        FOG       41  40  96 N3        30.02S VSB 1
SIREN          FOG       41  40  97 CALM      30.01F VSB 1/4
CUMBERLAND     CLEAR     46  45  93 CALM      30.01R
RICE LAKE      CLEAR     46  45  99 CALM      30.03R FOG
CHETEK         CLEAR     47  47 100 CALM      30.01R
LADYSMITH      CLEAR     51  49  94 CALM      30.02S
EAU CLAIRE     CLEAR     50  50 100 CALM      29.98F
MENOMONIE      CLEAR     53  52  98 CALM      29.99F
NEW RICHMOND   FOG       47  47  99 CALM      30.01R VSB 1
OSCEOLA        CLEAR     45  45 100 CALM      30.03S
$$

WIZ003>005-009-010-017-018-211000-
NORTH CENTRAL WISCONSIN

CITY           SKY/WX    TMP DP  RH WIND       PRES   REMARKS
MANITOWISH WTR FOG       44  44 100 CALM      30.02R VSB 1/4
ARBOR VITAE    FOG       52  51  95 CALM      30.01S VSB 3/4
WOODRUFF       FOG       52  51  95 CALM      30.01S VSB 3/4
RHINELANDER    CLEAR     55  55 100 CALM      30.02R FOG
EAGLE RIVER    FOG       50  50 100 CALM      30.02R VSB 1/4
LAND O LAKES   FOG       49  49 100 CALM      30.04R VSB 3/4
PHILLIPS       FOG       45  45 100 CALM      30.01S VSB 1/4
TOMAHAWK       FOG       52  51  97 CALM      30.02S VSB 1/4
MEDFORD        CLEAR     53  53  99 N3        29.99S
MERRILL        FOG       52  52 100 CALM      29.99S VSB 1/4
$$

WIZ029-030-035-036-043>047-211000-
CENTRAL WISCONSIN

CITY           SKY/WX    TMP DP  RH WIND       PRES   REMARKS
WAUSAU         CLEAR     60  60 100 NW6       29.96S
MOSINEE        CLEAR    N/A N/A N/A N8        29.97F
MARSHFIELD     CLEAR     61  56  83 N10       29.96F
STEVENS POINT  PTCLDY    63  63 100 CALM      29.98R FOG
WAUPACA        FOG       68  67  98 CALM      29.97R VSB 1/2
WAUTOMA        FOG       68  68 100 CALM        N/A  VSB 1/4
WISC RAPIDS    CLEAR     62  62 100 CALM      29.98R
CAMP DOUGLAS   CLEAR     59  59 100 NW5       29.96R FOG
$$

WIZ011>013-019>022-031-037>040-048>050-211000-
NORTHEAST WISCONSIN

CITY           SKY/WX    TMP DP  RH WIND       PRES   REMARKS
ANTIGO         CLOUDY    62  62 100 N10       29.99S
SHAWANO        CLOUDY    66  64  95 CALM      29.95R
OCONTO         CLOUDY    66  65  96 NW3       29.92S
STURGEON BAY   CLOUDY    66  64  94 W5        29.96R
GREEN BAY      CLOUDY    66  66 100 CALM      29.94R
MANITOWOC      CLOUDY    68  66  93 CALM      29.95R
APPLETON       MOCLDY    64  64 100 W7        29.95R
CLINTONVILLE   NOT AVBL
OSHKOSH        CLOUDY    68  67  96 NW7       29.93R
$$

WIZ032>034-041-042-053>061-211000-
SOUTHWEST WISCONSIN

CITY           SKY/WX    TMP DP  RH WIND       PRES   REMARKS
LA CROSSE      NOT AVBL
SPARTA         FOG       56  56 100 CALM      29.98R VSB 1/4
VIROQUA        MOCLDY    60  60 100 CALM      29.97S VSB 1/2
BOSCOBEL       FOG       68  67  96 S3        29.95R VSB 1
PRAIRIE DU CHI CLOUDY    68  66  94 CALM      29.93F
PLATTEVILLE    CLOUDY    68  68 100 SW3       29.97R
$$

WIZ056-057-062-063-064-067-068-211000-
SOUTH CENTRAL WISCONSIN

CITY           SKY/WX    TMP DP  RH WIND       PRES   REMARKS
REEDSBURG      CLOUDY    67  67 100 CALM      29.95R
BARABOO/DELLS  CLOUDY    68  67  95 CALM      29.95R FOG
LONE ROCK      CLOUDY    70  70 100 CALM      29.93R
MINERAL POINT  CLOUDY    70  70 100 S5        29.96R FOG
MADISON        CLOUDY    70  69  97 CALM      29.93S FOG
MIDDLETON      CLOUDY    70  70 100 CALM      29.94S VSB 1
WATERTOWN      CLOUDY    67  67 100 CALM      29.92S
MONROE         CLOUDY    68  63  83 S6        29.96R
JANESVILLE     CLOUDY    72  72 100 CALM      29.94S
$$

WIZ051-052-058>065-066-070>072-211000-
SOUTHEAST WISCONSIN

CITY           SKY/WX    TMP DP  RH WIND       PRES   REMARKS
MILWAUKEE      MOCLDY    70  66  87 CALM      29.93S
WAUKESHA       MOCLDY    68  64  88 CALM      29.95S
MILWAUKEE/TIMM CLOUDY    70  63  78 S5        29.94S
RACINE         CLOUDY    68  66  93 SE3       29.95F
BURLINGTON     MOCLDY    68  68 100 CALM      29.94R
KENOSHA        CLOUDY    67  64  90 W5        29.95S
FOND DU LAC    CLOUDY    69  66  90 N9        29.92R
SHEBOYGAN      CLOUDY    69  68  96 N5        29.93R
WEST BEND        N/A     66  66 100 CALM      29.94R
JUNEAU         CLOUDY    67  66  99 CALM      29.94S
$$

LSZ147-162-211000-
LAKE SUPERIOR

STATION/POSITION TIME  TEMP    WIND        PRES    WAVE
                       AIR SEA DIR/SP/G            HT/PER
                 (UTC) (F)     (DEG/KT/KT) (MB)    (FT/S)
W MID LAKE BUOY  0850   56 54  350/  2/  2 1016.0R   1
DEVILS ISLAND    0900   59     280/  3/  3 1016.4R
PORT WING        0730          160/  3/  5 1016.3R
SAXON HARBOR     0830   51     200/  4/  5 1015.6S
$$

LMZ867-665-643>646-211000-
LAKE MICHIGAN

STATION/POSITION TIME  TEMP    WIND        PRES    WAVE
                       AIR SEA DIR/SP/G            HT/PER
                 (UTC) (F)     (DEG/KT/KT) (MB)    (FT/S)
S GREEN BAY BUOY 0900   67 66  300/  4/  4 1013.2
N MID LAKE BUOY  0850   67 65  340/  6/  8 1013.6R   3/ 6
NORTHPORT PIER   0840   67     300/  9/ 13 1012.9S
KEWAUNEE LAKESHO 0854   67        CALM     1013.2R
SHEBOYGAN LAKESH 0900   70     350/ 11/ 13 1013.4R
PORT WASHINGTON  0830   69     220/  5/  8 1013.9S
ATWATER BUOY     0809   68 67  190/  8/ 10 1013.7F
MILWAUKEE LAKESH 0900   70     150/  1/  1   N/A
S MID LAKE BUOY  0850   71 69  160/  8/  8 1013.5S   1/ 3
KENOSHA   LAKESH 0900   72     220/  5/  6 1013.9
$$

TC  - TEMPERATURE IN CELSIUS
VSB - VISIBILITY IN STATUTE MILES
WCI - WIND CHILL INDEX
HX  - HEAT INDEX




USA.gov is the U.S. government's official web portal to all federal, state and local government web resources and services.